[TLELIST] Archives

 

[list_settings.list_name] Current TLEs

October 10th 2021 PDT

HST 1 20580U 90037B 21282.69218524 .00001007 00000-0 49814-4 0 9994 2 20580 28.4709 29.1303 0002481 208.9888 292.2721 15.09770609528276 ISS (ZARYA) 1 25544U 98067A 21283.35935438 .00002710 00000-0 57425-4 0 9993 2 25544 51.6429 133.2436 0004120 76.7315 97.9904 15.48961962306443 CXO 1 25867U 99040B 21284.47093394 .00000896 00000-0 00000-0 0 9999 2 25867 52.2249 250.1472 8492021 227.4737 0.6288 0.37806917 10885 ____________________________________________________________________ These 2-Line ...Continue Reading

[list_settings.list_name] Current TLEs

October 9th 2021 PDT

HST 1 20580U 90037B 21282.03512844 .00000967 00000-0 47444-4 0 9995 2 20580 28.4709 33.4785 0002498 201.6762 321.2877 15.09769337528447 ISS (ZARYA) 1 25544U 98067A 21281.73004796 .00003128 00000-0 65029-4 0 9990 2 25544 51.6444 141.3023 0004210 71.7185 11.5978 15.48952913306193 CXO 1 25867U 99040B 21284.47041675 .00000896 00000-0 00000-0 0 9994 2 25867 52.2249 250.1473 8492025 227.4736 0.5588 0.37806866 10873 ____________________________________________________________________ These 2-Line ...Continue Reading

[list_settings.list_name] Current TLEs

October 8th 2021 PDT

HST 1 20580U 90037B 21280.77208021 .00000992 00000-0 48916-4 0 9996 2 20580 28.4707 41.8371 0002559 187.8386 296.6382 15.09767402528250 ISS (ZARYA) 1 25544U 98067A 21281.22625978 .00003350 00000-0 69068-4 0 9999 2 25544 51.6434 143.7971 0004082 68.7062 83.5236 15.48951992306111 CXO 1 25867U 99040B 21284.46907424 .00000896 00000-0 00000+0 0 9995 2 25867 52.2245 250.1475 8492040 227.4733 0.3759 0.37806056 22013 ____________________________________________________________________ These 2-Line ...Continue Reading

[list_settings.list_name] Current TLEs

October 7th 2021 PDT

HST 1 20580U 90037B 21279.77960531 .00000961 00000-0 47036-4 0 9993 2 20580 28.4706 48.4050 0002604 177.1755 302.3459 15.09765498527835 ISS (ZARYA) 1 25544U 98067A 21280.32316285 .00003017 00000-0 63041-4 0 9992 2 25544 51.6448 148.2619 0004154 67.0682 85.9790 15.48942397305978 CXO 1 25867U 99040B 21281.82691144 .00000946 00000-0 00000-0 0 9998 2 25867 52.2969 250.2628 8488269 227.4723 0.6175 0.37807575 10866 ____________________________________________________________________ These 2-Line ...Continue Reading

[list_settings.list_name] Current TLEs

October 6th 2021 PDT

HST 1 20580U 90037B 21278.44376608 .00001008 00000-0 49892-4 0 9997 2 20580 28.4704 57.2452 0002659 162.9539 241.6824 15.09763443527636 ISS (ZARYA) 1 25544U 98067A 21279.42355231 .00001706 00000-0 39223-4 0 9993 2 25544 51.6448 152.7129 0004231 63.8535 109.4859 15.48933243305834 CXO 1 25867U 99040B 21279.18173032 .00001054 00000-0 00000-0 0 9996 2 25867 52.3919 250.4236 8487795 227.4311 0.4970 0.37816563 10852 ____________________________________________________________________ These 2-Line ...Continue Reading

[list_settings.list_name] Current TLEs

October 5th 2021 PDT

HST 1 20580U 90037B 21277.66335100 .00001014 00000-0 50282-4 0 9994 2 20580 28.4703 62.4099 0002690 154.8291 319.7273 15.09762154527510 ISS (ZARYA) 1 25544U 98067A 21278.39008522 .00004186 00000-0 84290-4 0 9995 2 25544 51.6450 157.8229 0004105 60.1740 106.6011 15.48932263305674 CXO 1 25867U 99040B 21279.18173032 .00001054 00000-0 00000-0 0 9996 2 25867 52.3919 250.4236 8487795 227.4311 0.4970 0.37816563 10852 ____________________________________________________________________ These 2-Line ...Continue Reading

[list_settings.list_name] Current TLEs

October 4th 2021 PDT

HST 1 20580U 90037B 21276.80907398 .00000984 00000-0 48425-4 0 9994 2 20580 28.4701 68.0634 0002718 145.9373 356.2969 15.09760495527387 ISS (ZARYA) 1 25544U 98067A 21277.45423611 .00004313 00000-0 86636-4 0 9999 2 25544 51.6458 162.4535 0004045 56.1498 288.7564 15.48924269305528 CXO 1 25867U 99040B 21279.18173032 .00001054 00000-0 00000-0 0 9996 2 25867 52.3919 250.4236 8487795 227.4311 0.4970 0.37816563 10852 ____________________________________________________________________ These 2-Line ...Continue Reading

[list_settings.list_name] Current TLEs

October 3rd 2021 PDT

HST 1 20580U 90037B 21275.81673951 .00001045 00000-0 52154-4 0 9992 2 20580 28.4700 74.6305 0002749 135.8216 2.2470 15.09759136527231 ISS (ZARYA) 1 25544U 98067A 21276.19076174 .00005776 00000-0 11325-3 0 9993 2 25544 51.6454 168.6988 0004107 53.3446 81.6478 15.48913355305332 CXO 1 25867U 99040B 21279.18156048 .00001054 00000-0 00000+0 0 9993 2 25867 52.3918 250.4236 8487804 227.4312 0.4753 0.37815922 21997 ____________________________________________________________________ These 2-Line ...Continue Reading

[list_settings.list_name] Current TLEs

October 2nd 2021 PDT

HST 1 20580U 90037B 21275.16030624 .00001064 00000-0 53306-4 0 9995 2 20580 28.4699 78.9747 0002764 129.0605 34.1340 15.09758148527400 ISS (ZARYA) 1 25544U 98067A 21275.16186654 .00003909 00000-0 79362-4 0 9996 2 25544 51.6457 173.7885 0003812 50.4043 103.6045 15.48894278305170 CXO 1 25867U 99040B 21276.53592608 .00001090 00000-0 00000-0 0 9996 2 25867 52.4936 250.6009 8485958 227.3590 0.3833 0.37811977 10849 ____________________________________________________________________ These 2-Line ...Continue Reading

[list_settings.list_name] Current TLEs

October 1st 2021 PDT

HST 1 20580U 90037B 21273.81193127 .00001057 00000-0 52853-4 0 9991 2 20580 28.4698 87.8983 0002801 115.5815 264.4960 15.09755843527196 ISS (ZARYA) 1 25544U 98067A 21274.25816815 .00005249 00000-0 10377-3 0 9993 2 25544 51.6450 178.2593 0004287 46.8394 104.8068 15.48887264305034 CXO 1 25867U 99040B 21276.53592608 .00001090 00000-0 00000-0 0 9996 2 25867 52.4936 250.6009 8485958 227.3590 0.3833 0.37811977 10849 ____________________________________________________________________ These 2-Line ...Continue Reading
  • This mailing list is a public mailing list - anyone may join or leave, at any time.
  • This mailing list is announce-only.

International Space Station (ISS) / Hubble Space Telescope (HST) / Chandra X-Ray Observatory Orbital Data via EMAIL

Privacy Policy:

Private list